Regional Weather Roundup
Issued by NWS

Home | Current Version | Previous Version | Graphics & Text | Print | Product List | Glossary On
Versions: 1 2 3 4 5 6 7 8 9 10 11 12 13 14 15 16 17 18 19 20 21 22 23 24 25 26 27 28 29 30 31 32 33 34 35 36 37 38 39 40 41 42 43 44 45 46 47 48 49 50
000
ASUS43 KFSD 291610
RWRSD

WEATHER ROUNDUP FOR SOUTH DAKOTA
NATIONAL WEATHER SERVICE SIOUX FALLS SD
1100 AM CDT WED JUL 29 2015

NOTE: "FAIR" INDICATES FEW OR NO CLOUDS BELOW 12,000 FEET WITH NO
SIGNIFICANT WEATHER AND/OR OBSTRUCTIONS TO VISIBILITY.


SDZ001>005-009-010-012>017-291700-
NORTHWEST AND NORTH CENTRAL SOUTH DAKOTA

CITY           SKY/WX    TMP DP  RH WIND       PRES   REMARKS
BUFFALO          N/A     75  39  27 W22G28    30.14R
FAITH            N/A     75  40  28 W17       30.17R
MOBRIDGE       SUNNY     77  49  37 W18       30.07R
$$

SDZ012>016-024>037-041>051-057-063-072>074-291700-
SOUTHWEST AND SOUTH CENTRAL SOUTH DAKOTA

CITY           SKY/WX    TMP DP  RH WIND       PRES   REMARKS
RAPID CTY ARPT SUNNY     76  41  28 W13       30.26S
PIERRE         SUNNY     79  49  34 SW16      30.13R
CUSTER         SUNNY     66  36  32 W10       30.38S
ELLSWORTH AFB  SUNNY     75  40  27 W13       30.24F
PHILIP         SUNNY     75  50  41 SW16      30.20S
PINE RIDGE     SUNNY     73  44  35 W5        30.30F
SPEARFISH      FAIR      72  39  30 W16G23    30.29S
WINNER         FAIR      81  42  25 SW17G25   30.20S
$$

SDZ004>011-016>023-039-040-291700-
NORTHEAST SOUTH DAKOTA

CITY           SKY/WX    TMP DP  RH WIND       PRES   REMARKS
ABERDEEN       SUNNY     76  49  38 W17G26    30.03S
WATERTOWN      SUNNY     73  51  46 W21G28    30.05S
BROOKINGS      SUNNY     72  52  49 W22G28    30.10S
SISSETON         N/A     74  53  48 W21G33    29.96R
$$

SDZ017-020-022-023-036>040-048>070-291700-
SOUTHEAST SOUTH DAKOTA

CITY           SKY/WX    TMP DP  RH WIND       PRES   REMARKS
SIOUX FALLS    MOSUNNY   74  55  51 W10G17    30.13S
HURON          SUNNY     76  53  44 W17       30.10R
CHAMBERLAIN    SUNNY     76  48  37 W17G23    30.17S
MITCHELL       SUNNY     78  51  38 W17G24    30.13S
YANKTON        SUNNY     77  54  44 SW18      30.16S
$$

ABBREVIATIONS USED IN REMARKS
   TC - TEMPERATURE IN CELSIUS
  WCI - WIND CHILL INDEX
   HX - HEAT INDEX
  VSB - VISIBILITY




USA.gov is the U.S. government's official web portal to all federal, state and local government web resources and services.